Dewpoint
43 42 42 42 44 48 46 42 34 48 50 34 33 34 34 39 37 37 36 34 32 30 31 30 30 29 30 32 34 32 33 32 25 25 30 32 30 29 29 26 25 27 24 19
43 42 40 42 44 47 45 37 38 49 44 30 32 37 36 38 37 35 34 34 35 35 33 31 31 32 33 34 33 32 33 32 25 21 29 32 33 32 30 32 31 26 22 18
42 42 41 41 44 47 46 39 33 38 40 38 33 35 35 35 38 37 36 36 35 35 34 35 32 33 35 34 34 36 35 33 25 21 22 28 31 33 33 32 27 24 26 22
42 42 40 41 44 47 46 39 35 38 32 35 35 36 34 35 34 37 37 35 34 33 32 32 33 33 34 35 36 35 36 32 32 30 31 32 33 33 33 31 30 27 23 25
42 42 40 41 45 47 44 38 36 40 35 37 37 37 34 33 35 36 35 33 35 34 33 32 33 33 33 32 36 34 38 33 35 32 33 33 33 35 35 35 32 32 30 28
42 42 41 40 44 46 42 43 44 40 37 37 37 36 34 34 36 36 35 36 35 34 35 36 37 38 38 37 36 36 36 35 33 28 32 33 33 36 35 35 34 32 30 31
42 42 41 40 43 46 45 44 43 38 35 37 36 36 36 35 35 36 38 37 36 39 42 41 42 40 39 39 37 38 35 34 35 30 33 26 32 39 39 37 36 35 33 31
41 42 42 40 42 45 45 45 43 40 37 37 37 37 35 37 38 38 37 40 40 44 42 38 35 34 36 36 37 37 38 35 34 32 31 31 30 31 37 36 34 37 34 33
42 42 41 40 41 44 45 44 46 44 40 37 38 37 37 36 37 37 39 43 46 45 40 37 32 23 28 28 33 37 38 36 34 33 30 27 30 33 38 38 34 38 36 36
41 41 40 42 41 44 45 44 48 46 41 39 39 36 37 41 40 38 40 41 43 44 38 35 32 27 31 29 28 35 35 34 31 32 32 30 34 33 39 28 31 35 39 39
41 39 41 43 44 44 44 43 47 46 41 39 42 42 39 40 40 38 40 39 40 40 35 35 34 30 31 30 29 31 33 34 33 33 31 26 34 31 29 30 35 36 37 40
39 39 40 42 43 44 44 42 45 47 45 41 46 45 45 42 42 41 42 40 40 41 38 36 36 31 32 31 28 32 30 32 31 31 31 34 36 35 35 37 36 36 37 37
38 38 38 40 40 43 44 44 45 47 44 43 43 41 46 48 47 47 41 43 43 43 45 40 39 36 33 30 31 30 33 36 35 35 35 36 36 35 37 37 37 37 37 35
39 41 40 39 40 42 44 43 45 44 44 37 38 47 44 47 49 49 48 46 47 46 45 43 40 36 37 33 33 33 34 36 35 35 36 36 36 36 36 36 36 34 32 31
39 39 39 40 40 41 43 44 45 46 46 41 41 45 46 47 48 48 49 47 45 43 42 42 39 41 36 34 34 32 36 35 35 34 36 35 34 37 37 36 35 33 31 29
38 40 40 41 41 41 43 42 49 50 50 42 38 46 45 45 47 46 46 46 45 44 44 43 43 40 39 37 34 37 36 36 37 37 35 36 37 37 37 36 34 32 30 28
39 40 41 42 40 42 39 40 45 46 45 43 38 39 44 45 45 45 44 45 44 44 44 43 43 41 41 37 34 36 37 36 35 36 36 36 37 36 36 35 34 32 29 27
40 41 43 43 43 42 41 45 46 46 46 44 36 37 39 43 42 41 44 42 44 44 43 42 41 41 40 37 38 38 36 36 36 36 37 37 37 36 35 33 32 31 29 27
40 43 42 42 41 41 45 50 48 49 45 39 37 34 34 42 42 42 42 43 40 41 40 40 40 39 36 37 37 37 37 35 35 36 37 37 36 35 35 34 33 30 29 27
42 43 41 39 43 44 48 47 44 41 42 42 38 40 37 39 40 39 39 39 37 34 38 38 37 37 38 37 38 37 36 36 36 35 35 36 35 35 34 33 33 30 28 26
38 36 35 40 42 45 43 38 37 38 35 39 37 37 36 40 37 37 37 34 34 32 32 34 33 32 34 33 34 36 36 36 35 36 36 37 36 34 32 31 31 29 27 24
38 39 41 40 39 38 35 34 35 35 34 37 38 38 38 38 40 36 37 34 33 29 31 32 29 31 30 31 32 33 35 36 35 35 36 35 34 33 32 31 29 27 25 23
40 37 33 35 34 31 32 30 32 33 35 35 36 35 38 38 38 35 35 33 31 30 30 28 29 29 30 31 33 33 34 34 34 34 34 33 33 32 30 28 26 25 23 22
34 32 27 30 31 32 32 28 25 30 33 35 37 35 35 36 34 34 33 31 30 27 25 21 24 25 29 30 32 33 32 32 32 32 32 32 31 29 27 26 25 23 21 19
33 32 25 29 32 32 32 31 32 33 36 36 34 34 34 33 33 30 30 28 26 25 23 24 21 20 23 29 30 30 30 31 31 31 30 29 28 27 25 25 24 22 20 17
33 32 26 31 30 30 31 32 33 34 37 35 35 33 31 31 31 28 26 21 22 25 23 21 15 27 27 28 29 29 30 30 30 30 29 28 27 25 23 22 21 19 18 16
31 29 29 29 26 28 31 31 33 37 35 33 33 31 28 26 25 24 23 23 28 26 21 26 23 22 26 26 28 29 29 29 30 29 28 26 24 22 20 18 17 17 16 16
Lifted_Index
5 4 3 3 2 1 1 1 1 1 2 3 3 2 2 2 2 3 3 4 4 4 4 4 4 4 5 6 6 6 6 6 4 4 5 6 5 4 3 2 2 1 1 1
6 5 3 3 2 2 1 1 1 1 2 3 3 3 2 2 2 2 3 3 3 4 4 4 4 4 5 6 6 6 6 5 4 4 4 5 4 4 3 3 2 1 1 1
6 5 4 3 2 2 2 1 1 2 2 3 3 3 3 2 2 2 2 3 3 3 3 3 4 4 5 6 6 6 6 6 4 3 3 3 3 3 3 3 2 1 1 1
6 5 4 3 3 2 2 2 2 2 2 3 3 3 3 2 2 2 2 2 2 2 3 3 3 4 5 5 5 6 6 5 4 3 3 3 2 2 2 2 2 2 1 1
6 5 4 4 3 3 3 3 2 2 3 3 3 3 3 2 1 1 2 2 2 2 3 3 3 4 4 4 5 6 6 5 4 3 2 2 1 2 2 2 2 2 2 2
6 5 5 5 5 4 4 4 3 3 2 3 3 3 2 2 1 1 2 2 2 3 3 4 4 4 4 4 5 6 6 5 3 2 2 1 1 1 2 2 2 2 2 2
7 6 6 6 6 6 5 5 4 3 2 3 3 3 2 2 1 1 2 2 3 3 4 4 4 4 4 5 6 6 6 5 3 2 1 1 1 2 2 2 2 2 2 2
7 7 7 8 7 6 6 5 4 3 2 2 3 3 2 2 1 1 2 2 3 3 4 4 3 3 4 4 5 6 6 5 4 2 1 1 1 2 2 2 2 2 2 2
7 7 8 8 8 7 6 5 4 3 2 2 2 2 2 1 1 2 2 2 3 3 3 3 3 3 4 5 5 5 5 4 3 2 1 1 1 2 2 2 1 1 1 1
8 8 8 8 8 7 6 5 4 3 2 2 2 1 1 1 1 2 2 2 3 3 3 3 3 3 4 5 4 4 3 3 3 2 1 1 1 2 2 2 2 1 1 1
9 9 9 8 8 8 6 5 3 3 2 1 1 1 1 2 2 2 2 2 2 3 3 3 3 4 4 5 4 3 3 2 2 2 2 1 2 2 2 2 2 2 1 1
11 11 10 9 9 8 7 4 3 2 2 1 1 1 2 2 2 2 2 2 2 2 3 3 4 4 4 4 4 3 3 2 2 2 2 2 2 2 2 2 2 2 2 2
12 11 11 10 10 9 8 5 3 2 2 2 2 2 2 2 3 3 3 3 3 3 3 3 3 3 4 4 4 3 3 3 3 3 2 2 2 2 2 2 2 2 2 2
12 12 11 11 11 10 8 5 3 3 2 2 2 2 2 3 3 3 3 3 3 3 3 3 3 3 3 4 4 4 3 3 3 2 2 2 2 2 2 2 2 2 2 2
12 12 12 11 11 10 7 5 3 3 2 2 2 2 3 3 3 3 4 4 4 4 3 3 3 3 3 4 4 4 3 3 3 2 2 2 2 2 2 2 2 2 2 2
12 12 12 11 11 9 6 4 3 2 2 2 2 2 3 3 3 4 4 5 5 4 3 3 3 3 3 3 3 3 3 3 3 2 2 2 2 2 3 3 3 3 3 2
12 12 11 11 10 8 5 3 3 3 3 3 2 2 3 3 3 4 4 5 4 4 3 3 3 3 3 3 2 3 3 3 3 3 2 2 2 2 3 3 3 3 3 3
11 11 10 10 9 7 4 3 3 3 3 3 3 2 3 3 3 3 3 4 4 4 4 3 3 3 2 2 2 3 3 3 3 2 2 2 2 2 3 3 3 3 4 4
10 10 9 8 6 5 3 3 3 3 3 3 3 3 3 3 3 3 3 3 3 3 3 3 3 3 2 2 2 2 3 3 3 2 2 2 2 2 3 3 3 4 4 5
9 8 7 6 5 4 3 3 3 3 3 3 3 3 3 3 3 3 3 3 3 3 3 3 3 3 3 3 3 3 3 3 3 3 2 3 3 3 3 3 4 5 6 6
9 8 6 5 4 3 3 3 3 3 3 3 3 3 3 3 3 3 3 3 3 3 3 3 3 3 3 3 3 3 3 3 3 3 3 3 3 3 3 4 5 6 7 7
9 8 6 5 4 3 3 3 3 2 2 2 3 3 3 3 3 3 3 3 3 3 4 3 3 3 4 4 3 3 3 3 3 3 3 3 3 4 4 4 5 7 8 9
8 7 5 4 3 3 3 3 3 2 2 2 3 3 3 3 3 3 2 2 3 3 3 3 3 3 4 4 4 3 3 3 3 3 3 3 4 4 4 5 6 7 9 9
7 6 4 4 3 3 4 3 3 3 2 3 3 3 3 3 3 3 2 2 2 2 2 2 3 4 4 4 4 4 3 3 3 3 3 3 3 4 5 6 7 8 8 9
6 5 4 4 4 4 4 4 3 3 3 3 3 3 3 3 3 3 3 2 2 2 2 3 4 5 4 4 4 4 4 3 3 3 3 3 4 4 5 7 8 9 9 9
7 5 4 4 4 4 4 4 4 4 3 3 3 3 3 3 3 3 2 2 1 2 3 4 4 5 5 5 5 5 4 4 3 3 3 4 4 5 6 7 9 10 10 9
7 6 5 4 4 4 4 4 4 4 4 3 3 2 2 2 3 2 2 1 1 2 3 4 4 5 5 6 6 6 5 4 3 3 3 4 5 5 6 7 9 10 10 10